Powrót do katalogu

STARLINK-5359

AktywnyŁącznośćVLEO
NORAD 54864·PAYLOAD·🇺🇸 United States

Wystrzelony Dec 28, 2022 z Cape Canaveral Space Force Station

Loading…

Następne Przeloty (najbliższe 24 godziny)

TLE

ŚwieżeSource: CelesTrak SupGP

Epoka: Sep 14, 2026, 21:20 UTC

1 54864C 22177AW  26257.88937500 -.00021770  00000+0 -78869-3 0  2574
2 54864  43.0005 133.3837 0001040 259.0981  64.9568 15.27581459    14

Śledź STARLINK-5359 w czasie rzeczywistym z AllMySat

Download on the App Store